Theta_e
313 313 314 313 310 310 311 310 310 309 309 310 308 311 311 308 305 306 305 305 305 309 317 322 327 330 331 332 333 333 334 335 336 335 334 333 333 330 330 331 331 330 330 329
313 315 312 313 311 311 310 310 309 309 309 309 309 309 307 307 306 305 306 304 303 303 303 306 314 322 327 328 330 332 333 334 335 335 334 334 333 331 329 328 329 330 331 331
313 312 313 315 313 312 311 310 308 310 309 308 308 309 307 307 306 306 305 303 303 304 303 302 305 310 317 324 326 329 331 334 335 335 334 333 332 331 330 329 327 328 329 330
309 312 313 315 316 311 314 308 309 309 309 310 306 312 305 304 306 306 307 304 305 303 303 302 304 307 312 320 325 328 331 333 334 334 334 333 332 331 331 329 326 327 326 327
310 308 314 314 313 309 311 308 310 309 308 307 307 305 306 302 304 304 304 305 306 302 302 302 303 306 309 315 320 324 328 331 333 333 333 333 332 332 332 329 327 327 326 325
307 305 310 312 309 309 307 309 307 306 305 308 306 305 305 302 304 305 303 302 303 301 302 301 305 307 309 310 311 311 312 314 321 331 332 332 332 332 331 329 329 328 325 324
306 307 306 306 308 307 307 310 309 310 309 310 303 303 309 304 302 304 304 303 300 300 303 303 305 308 310 311 312 312 312 311 310 309 323 331 332 332 332 328 328 327 324 323
309 310 306 305 307 308 308 307 310 310 309 306 304 306 306 304 304 301 302 304 303 303 304 304 306 308 309 311 314 315 313 312 311 310 308 315 330 331 331 330 326 324 323 323
307 308 307 306 307 307 307 310 306 308 303 310 306 304 304 304 303 306 305 304 304 304 303 304 305 307 308 311 315 317 316 312 309 313 312 310 324 329 330 329 325 325 325 326
305 308 308 307 306 306 306 306 309 308 310 309 306 305 305 305 306 305 307 305 304 304 304 304 304 306 308 310 314 316 316 314 315 318 320 320 322 327 328 326 323 323 322 322
305 307 308 307 307 306 305 307 306 307 310 311 308 306 302 305 305 305 307 306 305 304 304 303 304 306 307 309 312 314 314 314 315 317 319 321 323 323 323 320 320 319 319 320
307 306 307 307 307 307 306 306 307 309 308 306 308 308 303 302 305 303 306 306 304 304 303 302 303 304 305 307 309 310 311 312 312 314 316 317 318 317 316 315 317 315 314 312
307 306 304 309 307 307 307 306 305 304 306 309 310 308 302 305 305 305 304 304 304 304 302 301 300 301 303 305 306 307 308 309 309 310 311 311 311 312 312 313 311 309 306 303
308 307 307 309 308 307 309 307 305 306 308 307 307 308 305 305 306 307 305 303 304 304 303 301 300 301 302 303 303 304 305 305 305 306 306 307 306 307 307 306 304 301 299 297
307 305 305 308 307 307 306 308 306 307 308 308 308 305 306 304 305 306 306 304 305 304 303 302 301 300 301 301 301 301 302 302 303 303 303 302 301 301 300 298 296 295 295 294
305 302 305 305 307 308 308 307 308 308 307 307 305 304 304 304 304 307 306 305 306 306 305 303 302 300 299 299 299 299 299 299 299 299 298 297 296 296 295 294 294 293 293 293
307 303 305 305 306 307 307 306 306 306 306 306 306 307 303 304 304 305 307 306 306 306 305 303 302 300 299 299 300 298 298 298 297 297 295 294 294 294 293 293 292 292 292 291
306 306 305 308 307 311 308 305 305 306 305 305 305 305 304 304 304 304 305 306 306 305 304 303 302 301 299 299 299 298 297 296 295 294 293 293 292 292 292 292 291 290 289 289
305 304 303 306 299 305 304 303 304 305 308 305 305 304 303 303 304 304 301 303 305 303 303 303 302 300 299 299 298 297 295 295 294 292 292 292 292 291 291 290 288 288 288 288
304 304 306 292 302 305 303 303 302 304 308 300 304 304 304 303 306 305 303 302 303 302 303 303 302 300 299 297 298 296 294 293 292 291 291 291 291 291 289 288 288 288 287 288
302 303 308 300 297 300 300 304 302 307 305 300 302 303 302 305 304 300 299 297 296 297 299 300 299 297 296 296 296 293 292 291 292 291 290 289 288 288 287 287 287 287 287 286
308 308 303 297 298 307 299 304 306 304 300 300 304 303 300 299 298 298 295 294 293 293 294 295 295 294 294 295 294 291 291 292 291 290 288 287 286 286 286 286 286 285 285 284
309 305 305 306 305 302 298 304 300 299 301 300 301 300 299 298 298 296 294 292 291 291 291 292 293 292 292 293 293 291 291 290 289 287 285 285 285 285 285 285 285 284 283 283
304 302 307 308 304 303 300 300 299 299 298 298 298 297 298 299 296 296 293 291 290 288 289 290 291 289 289 290 291 293 291 289 288 286 285 285 285 284 283 283 282 283 282 283
302 302 300 300 302 302 300 299 298 297 296 295 295 296 297 296 295 294 290 287 289 288 287 288 288 288 288 289 290 290 290 288 286 284 283 283 283 282 282 281 281 282 282 282
295 300 305 303 302 304 302 298 297 296 296 295 296 296 295 295 294 291 287 290 289 287 287 287 288 288 288 288 288 288 287 286 285 283 283 282 281 281 280 281 280 279 280 280
Wind_Speed
5 5 16 16 6 1 7 8 4 5 5 3 7 7 11 4 4 7 8 8 9 12 20 23 31 35 35 35 35 36 38 38 37 36 33 30 27 25 27 27 24 22 21 20
3 17 7 6 2 2 3 5 7 2 2 4 1 10 9 3 7 9 10 8 12 6 8 17 29 32 35 37 36 37 38 38 38 37 36 32 31 29 27 25 27 27 26 24
5 4 7 6 4 6 4 5 4 3 2 3 2 6 7 5 6 5 7 9 7 11 10 10 17 27 28 35 35 38 37 39 37 37 35 32 26 26 25 24 24 26 25 25
3 3 14 12 16 8 10 6 4 4 4 4 2 9 6 7 9 7 13 9 13 11 7 6 12 20 24 25 28 33 34 36 35 34 35 34 28 23 28 27 24 23 22 24
7 10 12 15 8 8 5 5 6 3 3 2 2 1 7 1 7 9 15 14 17 10 9 9 13 20 20 19 21 24 26 29 31 31 34 35 30 29 25 23 22 20 18 20
8 3 11 13 9 10 7 5 4 3 3 3 7 7 5 6 8 6 7 12 12 10 8 8 12 15 16 16 15 16 18 19 22 28 32 35 35 33 26 21 18 19 17 17
3 3 2 5 6 3 8 11 2 1 2 6 1 4 13 6 7 6 8 9 8 8 8 8 9 16 15 16 14 14 16 19 21 22 25 31 33 31 29 24 19 16 16 18
10 8 8 4 6 8 8 7 5 7 5 2 2 7 6 8 3 7 7 4 4 6 6 7 8 11 10 9 10 10 12 14 17 21 25 25 27 27 26 22 18 18 15 16
8 6 2 2 2 8 5 9 4 6 2 3 4 6 9 6 9 7 7 5 8 8 8 8 10 10 9 8 8 9 9 9 12 12 15 19 23 24 23 20 16 13 11 8
7 5 1 2 2 1 8 10 4 2 4 3 3 5 5 4 12 9 8 9 7 6 7 7 10 12 11 10 10 10 10 10 11 11 12 15 20 22 20 18 15 11 10 8
5 5 2 2 6 8 3 3 2 4 4 5 1 6 8 15 7 9 9 8 9 8 7 7 10 12 12 11 11 11 11 12 12 13 14 15 17 19 21 19 14 11 11 12
2 5 4 6 2 2 1 7 10 6 8 1 3 9 2 7 5 7 7 7 6 6 7 6 11 14 13 13 12 12 12 13 13 15 16 18 19 20 20 19 16 12 12 12
8 1 3 3 3 1 4 4 4 5 3 7 7 7 1 5 5 4 7 8 7 7 7 6 7 11 15 16 15 14 14 14 15 16 17 18 20 21 20 18 17 15 14 13
8 4 8 12 5 8 5 5 4 5 3 3 7 4 6 5 5 4 2 5 8 9 8 7 5 10 16 16 16 16 15 15 16 17 18 18 19 19 18 18 18 18 17 16
6 6 4 2 2 3 5 10 10 8 17 10 17 9 13 5 6 6 3 5 7 8 8 9 9 11 17 17 15 15 15 17 18 19 19 19 20 20 21 22 21 20 18 16
2 3 3 1 2 2 1 7 16 23 16 19 3 7 3 3 5 5 8 8 9 11 11 12 11 15 18 20 20 19 20 19 19 20 21 22 22 22 22 21 20 18 16 14
12 7 4 5 1 3 5 10 13 12 15 12 15 15 6 5 8 8 9 11 12 12 12 12 13 17 21 27 28 26 24 22 23 24 24 24 24 23 21 20 18 16 14 12
6 6 3 3 2 3 5 4 8 16 9 17 1 4 9 10 9 9 9 12 11 10 10 11 16 19 24 28 27 26 25 24 24 25 24 24 23 23 21 19 16 14 12 10
1 5 3 5 5 5 7 6 7 8 16 16 18 7 5 3 4 6 7 8 10 8 8 14 21 24 27 29 29 28 27 26 27 27 26 24 23 22 20 17 15 13 13 12
4 4 4 3 7 12 1 6 6 6 15 6 12 14 13 7 5 9 4 3 1 5 11 18 24 27 30 33 34 34 32 31 30 29 26 24 22 20 19 17 16 15 13 10
3 3 11 3 4 8 7 5 5 9 7 1 3 5 7 9 4 3 3 3 2 2 4 13 23 26 29 35 37 32 32 31 31 28 25 23 21 19 18 17 16 15 12 9
7 6 4 3 1 13 7 4 10 4 1 3 2 2 6 4 4 3 5 4 4 4 7 13 19 21 26 34 36 31 31 31 29 27 24 22 20 18 17 15 14 12 11 9
3 6 6 9 6 2 5 0 1 3 5 4 4 2 5 6 4 4 3 4 3 3 6 11 17 19 23 30 33 31 30 30 29 27 24 21 20 18 17 15 14 13 11 10
4 2 3 3 3 5 5 2 2 2 3 4 4 5 4 5 6 3 3 2 3 4 5 10 14 17 21 26 27 29 32 33 31 28 25 23 22 20 17 15 13 13 13 11
3 8 6 3 2 1 2 4 5 3 4 4 3 3 5 5 3 3 3 3 6 7 7 12 16 18 22 23 24 25 32 31 29 27 25 23 20 18 17 15 13 12 11 9
4 6 5 4 6 3 3 8 7 7 5 5 4 3 3 3 4 3 2 5 7 9 10 13 14 18 23 25 24 26 29 29 28 26 24 24 22 20 18 17 14 13 11 10
Wind_Direction
187 149 196 185 161 265 184 199 210 198 148 214 218 237 242 192 207 236 229 232 234 225 238 227 221 220 221 222 223 223 221 222 219 218 221 223 225 231 234 237 238 238 237 239
143 214 157 149 152 234 243 195 199 339 85 150 115 260 266 230 226 211 212 231 232 232 244 236 229 224 223 223 221 224 224 222 221 221 224 223 225 230 232 240 245 245 246 244
176 170 142 211 207 227 213 203 177 154 143 109 85 277 252 240 241 225 233 225 233 230 236 242 225 222 221 222 220 220 222 223 223 222 222 222 226 229 230 230 241 244 247 247
227 215 174 196 225 197 225 199 171 139 129 199 142 254 256 235 238 226 237 231 233 225 227 247 220 217 216 217 221 220 221 223 224 222 222 221 214 210 227 231 239 241 247 249
214 172 181 210 194 179 203 177 190 172 143 111 168 260 265 316 247 242 242 232 231 217 199 224 210 210 206 203 205 209 215 222 227 226 226 226 220 227 237 237 240 245 249 255
203 173 179 190 174 192 155 80 43 63 95 264 199 182 243 202 208 240 243 236 216 196 192 196 192 175 178 183 187 199 201 209 218 223 224 227 228 229 229 235 236 238 245 257
146 228 221 144 132 132 170 143 171 237 181 223 79 157 241 257 242 227 252 259 218 176 168 172 171 171 178 178 185 201 215 219 220 224 225 226 229 232 232 240 234 234 251 248
171 213 172 188 188 175 192 159 167 188 191 189 90 224 248 233 273 255 271 273 149 155 165 167 167 169 176 181 187 194 209 219 224 226 227 224 226 229 231 231 228 235 240 244
161 212 321 189 167 152 186 193 159 101 12 82 203 286 297 249 265 257 241 188 190 180 177 167 162 167 169 173 187 196 196 202 209 219 220 217 213 216 219 219 212 210 198 208
187 163 322 232 163 138 181 161 180 22 132 232 280 278 236 266 236 221 218 204 193 184 171 166 169 169 168 175 180 181 187 179 182 186 185 190 199 202 203 198 187 188 175 184
143 112 219 177 213 158 136 186 111 126 156 183 194 253 218 228 215 217 217 205 190 183 176 173 173 173 168 170 174 178 178 174 170 176 169 164 164 169 168 169 184 194 184 173
162 112 148 206 238 125 332 182 180 183 222 239 147 255 239 236 226 215 206 191 180 170 183 175 172 170 168 174 174 174 165 162 166 167 162 161 162 163 164 157 159 175 174 164
178 112 77 4 357 11 214 210 164 111 74 199 197 247 339 288 282 265 211 186 169 170 171 177 169 177 182 182 179 175 169 168 165 161 160 154 153 154 150 148 151 155 155 152
119 138 170 203 212 136 195 189 175 142 171 173 232 221 280 265 284 291 238 174 167 175 173 171 183 189 199 189 183 179 172 171 165 161 156 153 151 151 149 147 147 147 147 146
136 174 147 80 319 122 186 179 168 190 218 195 235 201 237 218 225 253 217 171 167 177 178 182 190 193 198 193 186 181 177 173 169 162 157 151 149 148 147 144 143 142 144 140
180 181 120 22 23 193 167 196 201 211 219 230 97 248 232 210 136 177 206 180 195 197 199 196 192 186 187 188 188 184 178 172 169 162 155 152 150 147 147 144 142 142 137 135
184 131 125 223 22 98 309 211 211 219 219 204 219 233 174 205 212 208 208 203 208 207 199 199 196 189 186 190 191 186 179 173 171 164 159 157 155 152 150 147 146 143 142 143
138 120 64 154 64 208 251 204 191 207 220 221 54 202 188 209 213 220 206 199 208 208 199 198 192 191 188 193 189 184 178 175 170 166 164 163 161 156 154 153 150 148 150 150
46 125 115 146 196 296 252 248 149 176 252 217 217 196 199 198 108 260 217 198 214 207 207 205 196 187 189 188 185 180 175 176 174 171 170 168 168 163 159 157 155 158 157 150
54 82 119 119 169 224 74 200 159 99 264 220 187 196 202 140 195 232 128 67 247 225 212 201 197 190 186 187 183 179 179 179 180 177 173 172 172 170 166 168 167 163 159 157
94 63 206 137 226 286 237 164 147 161 258 25 195 201 160 192 206 108 90 68 17 27 177 187 181 177 182 184 181 174 178 182 183 177 174 173 174 173 174 173 168 167 170 165
151 151 185 92 118 257 166 69 164 207 42 168 118 171 171 119 127 94 78 70 54 95 124 162 164 170 181 183 180 174 179 184 178 175 173 173 174 174 172 175 171 172 177 171
200 184 173 181 209 218 211 103 104 155 147 188 135 116 128 127 160 159 143 131 115 130 143 164 169 167 178 182 187 177 182 177 174 174 174 174 173 176 178 181 185 180 178 173
245 185 181 110 212 194 204 104 143 187 148 142 118 132 131 123 145 149 140 158 136 144 162 169 170 170 175 185 189 194 180 179 177 176 177 179 181 181 185 188 187 185 179 176
186 144 163 289 296 355 221 211 160 106 85 88 73 117 136 116 159 183 189 177 189 179 174 181 181 178 180 184 189 190 184 181 179 181 180 182 186 187 186 188 189 190 190 195
188 173 174 220 191 164 200 174 160 150 155 156 134 118 92 142 182 166 211 212 195 193 194 191 192 189 184 185 187 187 186 186 185 184 187 191 192 193 193 192 187 185 200 202